Location: Unspecified
(0.0000°N, 0.0000°E)
Time: 01:14:40
(UTC+00:00)

Orbcomm F1 (FM01) - Pass Details

Date: 20 May 2026
Orbit: 578 x 582 km, 70.0° (Epoch: 10 June)

Event Time Altitude Azimuth Distance (km) Brightness Sun altitude
Exits shadow 04:22:08 17° 168° (SSE) 1,508 8.9 -22.1°
Maximum altitude 04:25:01 38° 106° (ESE) 885 8.2 -21.4°
Drops below altitude 10° 04:28:58 10° 38° (NE) 1,891 10.4 -20.5°
Sets 04:31:17 0° 30° (NNE) 2,787 11.2 -20.0°
